Погода в Широком

Россия / Ростовская область     46°57′05″N   42°13′48″E
темп.,
°C
ветер,
м/с
пор.,
м/с
влажн.,
%
обл.,
%
осадки,
мм/ч
давл.,
гПа
погр.,
м
18 апреля, вс
вс1800:00+9з227530 0.0 102114
03:00+7ссз22706 0.0 102115
06:00+8ссз1167100 0.0 102017
09:00+10в2368100 0.0 1019216
12:00+10ссв1175100 0.4 1019212
15:00+9св2389100 1.7 1018196
18:00+9всв1294100 0.4 101894
21:00+9вюв2395100 0.4 101891
19 апреля, пн
пн1900:00+10зюз2297100 0.0 101742
03:00+9сз2297100 0.2 101762
06:00+9с1296100 0.1 101773
09:00+13ссв2278100 0.1 1016472
12:00+14ююв1174100 0.3 1016583
15:00+14з1178100 0.1 1015562
18:00+13юв2288100 0.1 101457
21:00+12ю1197100 0.7 101533
20 апреля, вт
вт2000:00+12вюв349889 0.1 1013142
03:00+12вюв4998100 0.5 1012364
06:00+13в91590100 1.2 1007572
09:00+14в41176100 4.4 1009837
12:00+18вюв101766100 0.3 10051016
15:00+19юв10166798 0.4 10051070
18:00+18юв81471100 0.2 1005623
21:00+14юз51190100 1.7 1009351
21 апреля, ср
ср2100:00+13ююз6118586 0.1 1011585
03:00+10юз61080100 0.1 10141009
06:00+9юз511816 0.0 1016659
09:00+11зюз6973100 0.0 10171076
12:00+12зюз5772100 0.0 10191100
15:00+14зюз566479 0.0 10201104
18:00+13юз246950 0.1 1021333
21:00+12ююз357440 0.1 1022107
22 апреля, чт
чт2200:00+11ююз348496 0.1 1023106
03:00+8зюз118610 0.1 102410
06:00+8ссв11809 0.0 102411
09:00+14св225821 0.0 1025487
12:00+17ссв324971 0.0 10241504
15:00+17ссв2247100 0.1 10241529
18:00+15сз2261100 0.1 102420
21:00+13з3471100 0.1 102476